Temperature
12 12 12 12 12 12 12 13 13 13 13 13 13 13 13 13 14 14 14 14 14 14 14 14 14 14 14 14 14 14 14 13 13 13 13 13 13 13 13 13 13 13 12
11 12 12 12 12 12 12 12 12 12 12 13 13 13 13 13 13 13 13 13 14 14 14 14 14 14 14 14 14 14 14 13 13 13 13 13 13 13 13 12 12 12 12
11 11 11 11 11 11 11 11 12 12 12 12 12 12 13 13 13 13 13 13 13 13 13 13 13 13 13 13 13 13 13 13 13 13 13 13 12 12 12 12 12 12 12
10 10 11 11 11 11 11 11 11 11 11 11 12 12 12 12 12 12 12 13 13 13 13 13 13 13 13 13 13 13 13 13 13 13 13 12 12 12 12 12 12 12 12
10 10 10 10 10 10 10 10 10 10 11 11 11 11 11 11 12 12 12 12 12 12 12 12 13 13 13 13 13 12 12 12 12 12 12 12 12 12 12 12 11 11 11
9 9 9 9 9 9 10 10 10 10 10 10 10 10 11 11 11 11 11 11 11 11 11 12 12 12 12 12 12 12 12 12 12 12 12 11 11 11 11 11 11 11 11
9 9 9 9 9 9 9 9 9 9 9 9 9 10 10 10 10 10 10 10 11 11 11 11 11 11 11 11 11 11 11 11 11 11 11 11 11 11 11 11 11 11 10
9 9 8 9 8 8 8 9 9 9 9 9 8 8 9 9 10 10 10 10 10 10 10 10 10 11 11 11 11 11 11 11 11 11 10 10 10 10 10 10 10 10 10
8 8 8 8 8 8 8 8 8 8 8 8 8 8 8 8 9 9 9 10 10 10 10 10 10 10 10 10 10 10 10 10 10 10 10 10 10 10 9 9 9 9 9
7 7 7 7 8 8 8 7 7 7 7 7 8 7 7 7 7 8 8 9 9 9 9 9 9 9 9 9 9 10 10 10 10 10 10 9 9 9 9 9 9 9 9
7 7 7 7 7 7 7 7 7 7 7 7 7 7 7 7 7 7 7 8 8 8 8 9 8 8 8 8 9 9 9 9 9 9 9 9 9 9 9 9 9 9 9
6 6 6 6 6 6 6 6 6 6 6 6 6 6 6 6 6 6 6 6 7 7 8 8 8 8 8 8 8 8 8 8 8 8 8 8 8 8 8 8 8 8 8
6 6 6 6 6 6 6 6 6 6 6 6 6 6 6 5 5 5 5 5 6 6 7 7 7 7 7 7 7 7 7 8 8 8 8 8 8 8 8 8 8 8 8
6 5 5 5 6 6 6 6 6 6 5 5 5 5 5 5 5 5 5 5 5 5 5 6 6 6 6 6 6 7 7 7 7 7 7 7 7 7 7 7 7 7 7
5 5 5 5 5 5 5 5 5 5 5 5 5 5 5 5 4 4 4 4 4 4 4 5 5 6 6 6 6 6 6 6 6 6 6 6 6 6 6 6 6 6 6
5 5 5 5 5 5 5 5 5 5 4 4 4 4 4 4 4 4 4 4 3 3 3 4 4 5 5 5 5 5 5 5 6 5 5 6 6 6 6 6 6 6 6
5 5 5 4 4 4 4 4 4 4 4 4 4 4 3 3 3 3 3 3 3 3 3 3 4 4 4 4 5 5 5 5 5 5 5 5 5 5 5 5 5 5 5
4 4 4 4 4 4 3 3 3 3 3 3 3 3 3 3 3 3 2 3 2 2 2 3 3 3 3 3 4 4 4 4 4 4 4 5 5 4 5 5 5 5 4
4 4 3 3 3 3 3 3 3 3 3 2 2 2 2 2 2 2 2 2 2 2 2 2 2 2 3 3 3 3 3 3 3 3 4 4 4 4 4 4 4 4 4
3 3 3 3 3 3 3 2 2 2 2 2 2 2 2 2 2 1 1 1 1 1 2 2 2 2 2 2 2 2 2 3 3 3 3 3 3 3 3 3 3 3 3
3 3 2 2 2 2 2 2 2 2 2 2 2 2 2 1 1 1 1 1 1 1 1 1 1 1 1 1 1 1 1 2 2 2 2 2 2 2 3 3 2 2 2
3 2 2 2 2 2 2 1 1 1 1 1 1 1 1 1 1 1 0 0 0 0 0 0 0 0 0 1 0 0 0 0 0 1 1 1 1 2 2 2 2 2 2
2 2 2 2 2 1 1 1 1 1 1 1 1 1 1 1 0 0 0 0 0 -0 -0 -0 -0 0 -0 -0 -0 -0 -0 -0 -0 0 -0 0 1 1 1 1 1 1 1
2 2 1 1 1 1 1 1 1 1 0 0 0 0 0 0 0 -0 -0 -0 -0 -0 -0 -1 -0 -1 -1 -1 -1 -1 -1 -1 -1 -0 -1 -1 0 0 1 1 1 1 1
2 1 1 1 1 1 0 0 -0 -0 -0 -0 -0 -0 -0 -0 -0 -1 -1 -1 -0 -0 -0 -1 -1 -1 -1 -1 -1 -1 -2 -2 -2 -1 -1 -2 -1 -1 -0 0 0 0 0
1 1 1 1 0 0 -0 -0 -1 -1 -1 -1 -1 -1 -1 -1 -1 -1 -1 -1 -1 -1 -1 -1 -1 -1 -1 -1 -1 -2 -2 -2 -3 -3 -2 -3 -2 -3 -2 -1 -1 -1 -0
Wind_Speed
2 2 2 3 3 4 3 3 4 4 5 5 6 6 6 6 7 8 8 12 13 14 14 15 15 14 14 14 13 13 13 13 12 11 11 10 10 10 10 10 9 9 8
3 3 3 3 4 4 4 4 3 4 4 4 4 5 5 5 6 7 7 9 13 14 14 15 15 15 15 14 14 13 13 12 12 11 11 11 11 11 11 10 10 10 10
5 4 3 3 4 6 6 4 4 3 4 4 5 5 4 5 5 5 6 6 8 12 14 14 14 15 15 15 14 14 13 12 11 11 11 11 11 11 11 11 10 10 10
7 5 3 3 4 5 4 3 3 3 4 4 4 4 4 4 5 5 5 5 6 8 11 14 14 15 15 15 15 14 13 12 12 11 11 11 11 11 11 11 11 11 11
8 6 3 4 5 4 3 3 3 3 4 4 4 4 4 4 5 5 4 4 5 6 7 11 13 14 14 15 15 14 13 11 11 11 11 11 11 11 11 11 11 12 12
8 7 4 5 5 3 3 3 4 4 3 4 5 5 5 5 4 4 5 4 3 4 4 5 7 8 11 12 13 13 12 12 11 11 10 10 11 12 13 12 12 12 13
8 6 5 5 4 3 3 4 3 4 3 3 3 4 5 5 4 4 3 3 3 2 2 3 3 4 6 9 10 12 12 12 11 11 11 11 11 11 12 13 14 14 14
7 6 5 4 4 3 4 4 3 3 3 2 2 3 4 4 3 4 3 3 3 2 3 3 3 3 3 4 6 7 9 11 12 12 12 12 13 13 13 13 14 14 14
6 6 6 5 4 4 3 3 3 3 3 3 2 2 2 3 3 3 3 3 3 3 3 3 3 3 4 3 4 7 8 9 12 13 13 14 14 14 14 14 14 14 14
5 6 6 5 4 4 4 4 4 3 3 3 3 3 3 3 3 4 3 3 4 4 4 4 4 4 3 2 3 5 7 9 11 13 13 13 13 14 14 15 15 14 14
4 5 5 5 4 4 4 4 4 4 3 3 3 3 4 4 4 4 6 4 3 3 4 4 4 3 3 3 3 4 6 8 11 12 13 13 13 13 13 14 14 14 14
3 4 5 4 4 3 4 4 4 4 4 4 3 3 3 3 3 4 5 5 5 4 4 4 3 3 2 2 4 5 6 8 9 11 12 13 13 13 13 14 15 15 14
3 4 4 4 4 4 4 4 3 4 4 4 4 4 4 4 4 4 5 5 6 5 4 4 3 2 2 3 4 6 7 8 9 10 11 11 11 11 12 14 16 15 15
3 3 4 4 4 5 5 4 3 4 4 4 5 5 4 4 4 4 4 5 6 5 4 5 3 2 2 3 5 6 7 9 10 11 11 11 11 12 12 13 14 15 15
3 3 4 4 4 5 4 4 3 3 3 3 4 4 4 4 4 4 4 4 5 7 7 5 3 2 3 4 6 6 7 9 11 12 11 11 12 12 12 12 13 13 13
3 4 4 4 4 4 4 4 4 4 4 4 3 4 4 4 4 4 4 5 5 7 7 4 3 3 4 6 7 7 8 10 11 12 12 12 12 12 13 13 13 13 13
3 3 4 4 4 4 4 4 4 5 5 5 5 5 5 5 4 4 4 5 5 6 8 6 4 4 4 4 6 7 9 9 9 12 13 13 13 13 13 14 14 14 13
3 3 4 4 4 4 4 4 5 5 5 5 5 5 6 5 5 4 4 5 6 6 6 8 6 5 5 5 5 5 6 8 9 12 12 13 13 13 14 15 15 15 14
3 3 3 4 4 4 4 5 5 5 5 5 6 6 6 5 6 5 5 5 5 6 5 6 6 5 4 4 5 5 6 5 8 10 10 11 12 13 14 14 14 14 13
3 3 3 3 4 4 4 4 5 5 5 5 5 5 5 5 5 6 6 6 5 6 5 6 6 5 5 4 4 4 6 4 6 7 8 9 11 13 13 14 14 14 13
3 3 3 4 4 3 3 5 5 5 5 5 5 5 5 5 6 6 6 6 5 5 5 6 6 5 5 5 5 4 6 5 6 4 4 6 7 7 9 12 12 13 13
3 3 3 3 4 4 5 7 6 5 5 5 5 5 5 5 7 9 10 9 8 7 7 6 6 7 7 6 5 5 5 6 6 2 4 7 5 7 6 7 11 13 13
3 3 3 3 3 4 6 7 8 5 5 5 5 5 5 5 6 5 7 9 9 10 10 8 8 8 8 6 6 6 6 7 8 6 6 8 5 7 6 9 13 13 13
3 3 4 3 3 4 6 7 8 5 5 5 5 5 5 5 5 6 5 6 6 7 9 7 7 7 7 6 6 7 8 7 7 5 5 7 5 6 7 8 12 12 12
4 3 3 3 3 4 6 7 7 4 4 5 5 5 5 5 8 9 7 6 7 7 9 10 11 10 11 10 8 5 4 5 7 6 3 4 4 6 6 6 7 10 11
4 3 3 3 3 4 6 7 7 3 4 4 5 5 7 8 10 10 6 6 7 7 7 7 7 8 7 7 8 5 4 5 6 5 2 3 4 4 4 4 4 6 8
Wind_Direction
320 330 318 314 296 288 280 274 273 272 267 261 258 254 248 236 237 237 225 213 213 215 222 228 230 229 229 230 233 234 234 234 230 228 229 231 234 239 244 248 251 254 257
331 328 316 314 311 308 293 277 280 281 278 278 273 275 271 260 249 241 228 218 213 214 221 228 231 232 233 234 236 234 234 234 231 229 231 234 237 241 245 248 251 254 256
331 326 307 307 317 312 312 313 303 303 291 285 281 281 279 275 272 257 244 226 215 216 218 226 234 237 236 237 239 237 233 229 227 230 234 236 238 241 244 248 251 254 256
339 332 317 306 317 322 325 311 302 305 297 293 290 286 282 278 269 264 255 241 223 216 219 223 229 235 238 241 242 241 237 229 229 232 235 237 240 244 247 249 252 253 255
345 341 331 326 328 322 307 303 308 299 293 294 290 286 286 282 277 273 260 250 242 229 220 222 226 231 236 239 241 241 239 235 232 233 239 242 244 246 248 251 253 255 257
348 344 335 332 332 317 312 309 299 297 295 296 298 294 288 282 280 274 266 258 253 250 236 223 222 229 233 235 239 241 243 242 237 235 239 246 250 253 254 254 255 258 261
348 344 333 327 325 315 311 309 305 306 306 311 303 299 281 265 261 262 268 279 281 287 278 244 224 225 232 231 236 244 246 247 247 243 242 247 252 256 260 261 259 260 262
347 340 335 327 324 317 320 317 316 309 308 316 292 292 296 291 278 269 254 253 267 284 280 274 252 227 241 237 242 246 253 251 252 252 251 251 253 256 261 265 267 265 264
345 339 335 333 325 323 311 312 307 298 295 293 280 263 274 275 308 280 272 259 263 262 269 280 273 268 253 239 237 244 253 257 255 254 256 255 255 257 259 262 267 269 268
346 341 337 335 329 324 319 313 317 302 289 286 293 284 269 273 278 292 289 289 284 268 265 267 262 265 260 255 247 259 256 255 260 262 260 261 259 258 259 261 264 268 272
342 341 341 340 332 327 324 321 319 313 299 282 279 286 284 290 272 266 281 287 286 272 267 263 257 257 263 271 263 274 279 267 263 267 269 266 267 264 262 264 265 265 268
335 340 338 336 331 326 320 312 312 315 307 296 289 283 277 270 272 268 271 281 283 278 276 264 253 235 258 281 272 281 279 278 271 269 272 275 271 267 266 269 268 268 268
323 329 334 330 327 321 316 312 305 303 301 295 290 284 283 274 270 269 272 281 281 281 273 261 249 229 274 299 294 289 282 282 279 275 276 279 279 276 273 272 271 269 269
310 315 321 323 322 319 316 312 300 291 292 288 289 286 283 284 281 273 270 278 284 279 270 268 266 236 282 308 300 290 288 286 284 281 279 281 284 283 277 274 275 272 270
305 316 317 317 315 316 314 308 296 296 295 290 289 288 285 286 283 278 274 268 267 276 273 266 268 272 310 305 293 291 290 287 286 283 280 281 285 284 279 276 276 277 277
302 302 304 306 306 307 309 311 305 298 294 289 286 284 280 281 279 275 274 274 268 265 272 274 275 290 293 300 292 294 288 286 287 282 278 279 282 284 281 278 277 275 277
296 297 302 305 304 303 306 311 307 303 295 292 289 286 282 281 280 272 270 269 268 265 269 282 285 291 275 271 287 290 289 284 285 281 278 279 281 282 283 278 278 276 275
299 299 304 308 307 307 310 310 309 310 300 295 292 287 286 288 287 280 272 269 268 266 267 278 285 288 284 270 269 277 293 294 292 286 281 281 282 282 284 281 278 276 274
296 301 303 304 305 307 309 308 307 307 303 295 294 287 284 285 283 285 284 277 275 277 271 274 281 285 289 284 284 285 285 287 295 290 281 280 281 285 286 284 280 276 273
285 290 294 295 296 299 303 310 313 307 306 302 299 295 288 284 285 287 287 284 280 280 278 276 281 286 285 282 273 282 291 288 291 289 283 285 285 285 285 284 283 279 276
283 283 287 290 294 298 309 318 312 306 305 307 305 301 298 288 287 290 290 288 283 276 278 279 280 288 286 285 276 281 292 297 292 271 274 282 284 277 280 282 282 279 277
270 275 278 289 296 303 313 315 318 311 308 305 304 307 303 296 293 294 291 290 287 282 278 275 278 277 278 281 282 284 293 298 293 268 292 289 279 277 275 275 278 282 279
260 266 274 281 288 291 305 312 317 313 304 303 300 301 302 306 309 300 297 295 294 290 281 272 270 271 271 271 273 275 275 279 282 287 292 282 272 274 278 283 283 282 282
254 259 266 273 280 288 302 311 314 308 299 297 298 294 293 299 304 306 303 299 290 289 285 278 266 269 269 265 259 265 271 283 290 286 282 277 279 280 289 284 280 280 285
253 256 263 268 274 287 299 306 311 305 301 300 304 308 306 301 305 308 305 299 297 292 295 292 287 283 285 286 284 277 273 282 292 290 275 266 281 299 289 275 273 282 289
254 262 268 266 268 278 293 300 305 299 299 301 303 303 306 309 311 311 304 298 296 295 297 299 293 286 284 281 285 271 260 268 287 285 252 273 283 306 293 268 274 291 288
Height
1516 1517 1517 1517 1517 1517 1517 1517 1518 1518 1518 1519 1519 1520 1520 1521 1521 1522 1523 1524 1524 1525 1526 1526 1527 1528 1528 1529 1529 1530 1530 1531 1531 1531 1531 1532 1532 1532 1532 1531 1531 1530 1530
1514 1514 1514 1514 1514 1514 1514 1514 1514 1514 1515 1515 1515 1516 1516 1517 1517 1518 1519 1519 1520 1521 1521 1522 1523 1523 1524 1525 1525 1526 1526 1526 1527 1527 1528 1528 1528 1528 1528 1528 1527 1527 1527
1511 1511 1511 1511 1511 1511 1511 1511 1511 1511 1511 1511 1511 1511 1512 1512 1513 1513 1514 1515 1515 1516 1516 1517 1518 1519 1520 1520 1521 1521 1522 1522 1522 1523 1523 1524 1524 1524 1524 1524 1523 1523 1523
1509 1508 1508 1508 1508 1508 1508 1508 1507 1507 1507 1507 1506 1507 1507 1507 1508 1508 1509 1510 1510 1510 1511 1512 1513 1514 1514 1515 1516 1516 1517 1517 1518 1518 1519 1519 1519 1520 1519 1519 1519 1519 1519
1506 1505 1505 1505 1505 1505 1504 1504 1504 1503 1503 1503 1502 1502 1501 1502 1502 1503 1504 1504 1505 1505 1506 1507 1507 1508 1509 1510 1510 1511 1512 1512 1512 1513 1514 1514 1514 1515 1515 1514 1514 1514 1514
1502 1502 1502 1502 1501 1501 1501 1500 1500 1500 1499 1499 1498 1497 1496 1496 1496 1497 1498 1499 1500 1500 1501 1501 1502 1503 1504 1504 1505 1506 1506 1507 1507 1507 1508 1508 1509 1509 1509 1509 1509 1509 1509
1500 1499 1499 1498 1498 1498 1497 1497 1496 1496 1495 1495 1494 1492 1492 1492 1491 1492 1493 1494 1494 1495 1495 1496 1496 1497 1498 1499 1499 1500 1501 1501 1501 1502 1502 1503 1503 1503 1504 1504 1504 1503 1503
1497 1496 1495 1495 1494 1494 1494 1493 1493 1492 1491 1492 1492 1490 1488 1488 1487 1488 1488 1488 1489 1490 1490 1491 1491 1491 1492 1492 1493 1494 1495 1495 1495 1496 1496 1497 1497 1497 1498 1498 1498 1498 1498
1494 1493 1492 1491 1491 1490 1490 1490 1489 1489 1488 1488 1489 1489 1487 1485 1484 1483 1483 1484 1484 1484 1485 1485 1485 1485 1486 1487 1487 1488 1489 1489 1490 1490 1490 1490 1491 1491 1491 1492 1492 1491 1491
1491 1490 1489 1488 1487 1487 1486 1486 1486 1485 1485 1484 1484 1485 1485 1484 1483 1480 1479 1479 1479 1479 1479 1480 1480 1480 1481 1481 1481 1482 1483 1483 1483 1483 1484 1484 1484 1484 1484 1485 1485 1485 1485
1488 1487 1486 1485 1484 1483 1482 1482 1482 1481 1481 1480 1480 1480 1480 1480 1479 1478 1475 1474 1474 1474 1474 1474 1474 1475 1475 1475 1476 1476 1476 1477 1477 1477 1477 1477 1477 1477 1477 1478 1478 1478 1478
1485 1484 1483 1482 1481 1480 1479 1478 1478 1477 1477 1476 1476 1476 1476 1475 1475 1474 1472 1470 1469 1469 1469 1469 1469 1469 1470 1470 1470 1470 1470 1470 1470 1470 1470 1470 1471 1470 1470 1471 1471 1471 1471
1482 1481 1480 1479 1478 1477 1476 1475 1474 1473 1473 1472 1472 1471 1471 1471 1471 1470 1469 1466 1465 1464 1464 1464 1464 1464 1464 1464 1464 1464 1464 1464 1464 1464 1464 1464 1464 1464 1464 1464 1464 1464 1463
1480 1479 1477 1476 1475 1474 1473 1472 1471 1470 1469 1468 1468 1467 1466 1466 1466 1465 1465 1464 1461 1459 1458 1458 1458 1458 1458 1458 1458 1458 1457 1457 1457 1457 1457 1457 1457 1457 1456 1456 1457 1457 1456
1477 1476 1475 1474 1472 1471 1470 1469 1468 1467 1466 1465 1464 1463 1462 1461 1461 1460 1460 1460 1459 1455 1453 1453 1453 1453 1453 1452 1452 1451 1451 1451 1450 1450 1450 1450 1450 1450 1449 1449 1449 1449 1449
1474 1473 1472 1470 1469 1468 1467 1466 1465 1463 1462 1461 1459 1458 1457 1456 1455 1455 1455 1454 1454 1453 1449 1448 1448 1447 1447 1446 1446 1445 1445 1444 1444 1443 1443 1443 1443 1443 1443 1443 1442 1442 1442
1471 1470 1469 1467 1466 1465 1464 1462 1461 1459 1458 1456 1455 1454 1452 1452 1450 1450 1449 1449 1449 1448 1445 1443 1443 1442 1441 1441 1440 1439 1439 1438 1437 1437 1437 1437 1436 1436 1436 1436 1435 1435 1434
1468 1467 1466 1464 1463 1462 1460 1459 1457 1455 1454 1452 1451 1449 1448 1447 1446 1445 1444 1444 1443 1442 1441 1438 1437 1437 1436 1435 1434 1433 1433 1432 1431 1430 1430 1430 1430 1430 1429 1429 1428 1428 1427
1465 1464 1462 1461 1460 1458 1457 1455 1453 1452 1450 1448 1447 1445 1444 1442 1441 1440 1439 1439 1438 1437 1436 1434 1432 1431 1430 1430 1428 1427 1427 1426 1425 1424 1424 1423 1423 1423 1422 1422 1421 1421 1420
1462 1460 1459 1458 1457 1455 1453 1452 1450 1448 1446 1444 1443 1441 1439 1438 1437 1436 1435 1434 1433 1432 1431 1429 1426 1425 1425 1424 1423 1421 1420 1419 1418 1418 1417 1417 1417 1416 1416 1415 1414 1413 1413
1459 1457 1456 1455 1453 1452 1450 1448 1446 1444 1442 1440 1439 1437 1436 1434 1433 1431 1430 1429 1428 1426 1425 1423 1422 1420 1419 1419 1417 1416 1414 1412 1411 1412 1410 1410 1410 1409 1408 1408 1407 1406 1406
1456 1454 1453 1451 1450 1448 1447 1445 1443 1441 1439 1437 1435 1433 1431 1430 1428 1427 1426 1424 1423 1422 1420 1419 1417 1415 1414 1414 1413 1412 1410 1407 1405 1406 1404 1403 1404 1402 1401 1401 1400 1399 1399
1452 1451 1449 1448 1446 1445 1443 1441 1439 1437 1435 1433 1431 1429 1427 1426 1424 1422 1420 1419 1418 1417 1416 1415 1412 1411 1410 1409 1408 1406 1405 1403 1401 1400 1399 1395 1396 1395 1395 1394 1393 1392 1391
1449 1447 1446 1445 1443 1441 1440 1438 1436 1434 1432 1430 1428 1426 1424 1422 1420 1418 1416 1414 1413 1411 1410 1409 1407 1406 1405 1404 1403 1401 1399 1398 1396 1395 1395 1391 1389 1388 1388 1387 1386 1385 1384
1445 1444 1442 1441 1439 1438 1436 1434 1432 1430 1428 1426 1424 1422 1420 1418 1416 1414 1412 1409 1407 1406 1405 1403 1402 1401 1400 1399 1398 1396 1394 1392 1389 1388 1389 1387 1383 1381 1380 1379 1379 1379 1378
1441 1440 1439 1437 1436 1434 1433 1431 1429 1426 1424 1422 1420 1418 1416 1414 1412 1410 1407 1404 1402 1400 1399 1397 1396 1395 1394 1393 1393 1391 1390 1388 1385 1383 1382 1382 1379 1378 1374 1372 1372 1372 1372